Flag for Germany Weather past 2 weeks in Freising, Bavaria, Germany

Now
64 °F

Scattered clouds.


Feels Like: 64 °F
Forecast: 49 / 63 °F
Wind: 3 mph from Northeast

Location: Muenchen Flughafen

Current Time: Oct 2, 2014 at 4:42:59 PM

Latest Report: Oct 2, 2014 at 4:00 PM


Visibility: 11 mi

Pressure: 30.34 "Hg

Humidity: 72%

Dew point: 55 °F

Location of FreisingLocation

Historic Weather in Freising — Graph

°F

Freising temperature yesterday

Maximum temperature yesterday: 65 °F (at 5:00 PM)
Minimum temperature yesterday: 56 °F (at 11:00 PM)
Average temperature yesterday: 59 °F

Past Weeks' High & Low Weather Summary

 TemperatureHumidityPressure
High77 °F (Sep 19, 4:00 PM)100% (Sep 18, 3:00 AM)30.41 "Hg (Sep 18, 3:00 AM)
Low32 °F (Sep 24, 7:00 AM)46% (Sep 23, 3:00 PM)29.85 "Hg (Sep 18, 4:00 PM)
Average56 °F85%30.15 "Hg
* Reported Sep 17 3:00 PM — Oct 2 3:00 PM, Freising, Weather by CustomWeather, © 2014

Note: Actual official high and low records may vary slightly from our data, if they occured in-between our weather recording intervals... More about our weather records

Advertising

Freising weather history for previous 24 hours

 ConditionsComfort  
Time TempWeatherWind HumidityBarometerVisibility
3:00 PM
Oct 2
65 °FScattered clouds.2 mph75%30.34 "Hg8 mi
2:00 PM62 °FPartly sunny.2 mph77%30.37 "Hg6 mi
1:00 PM60 °FFog.2 mph85%30.39 "Hg3 mi
12:00 PM58 °FFog.1 mph92%30.40 "Hg2 mi
11:00 AM56 °FFog.1 mph98%30.40 "Hg1 mi
10:00 AM55 °FFog.1 mph99%30.40 "Hg0 mi
9:00 AM55 °FFog.1 mph100%30.39 "Hg0 mi
8:00 AM54 °FDrizzle. Dense fog.1 mph100%30.39 "Hg0 mi
7:00 AM54 °FFog.No wind99%30.38 "Hg0 mi
6:00 AM52 °FFog.1 mph99%30.38 "Hg0 mi
5:00 AM53 °FFog.1 mph99%30.37 "Hg2 mi
4:00 AM54 °FFog.1 mph99%30.37 "Hg1 mi
3:00 AM53 °FFog.1 mph100%30.37 "Hg1 mi
2:00 AM52 °FFog.1 mph99%30.37 "Hg3 mi
1:00 AM52 °FFog.No wind99%30.37 "Hg1 mi
12:00 AM51 °FFog.1 mph97%30.37 "Hg6 mi
11:00 PM
Oct 1
56 °FFog.2 mph98%30.35 "Hg6 mi
10:00 PM56 °FPassing clouds.1 mph94%30.34 "Hg7 mi
9:00 PM58 °FPassing clouds.1 mph93%30.33 "Hg9 mi
8:00 PM59 °FFog.1 mph94%30.31 "Hg7 mi
7:00 PM61 °FPassing clouds.1 mph89%30.29 "Hg9 mi
6:00 PM62 °FPartly sunny.1 mph83%30.28 "Hg12 mi
5:00 PM65 °FSprinkles. Overcast.1 mph78%30.26 "Hg9 mi
4:00 PM64 °FPartly sunny.2 mph80%30.26 "Hg9 mi
Weather by CustomWeather, © 2014

See weather overviewHow to use our weather pages